<?xml version="1.0" encoding="UTF-8" standalone="no" ?>
<gpx xmlns="http://www.topografix.com/GPX/1/1" xmlns:xsi="http://www.w3.org/2001/XMLSchema-instance" xsi:schemaLocation="http://www.topografix.com/GPX/1/1 http://www.topografix.com/GPX/1/1/gpx.xsd" version="1.1" creator="VisuGPX - https://www.visugpx.com">
  <metadata>
    <name>combe marion et coillu bordel </name>
    <desc><![CDATA[ski de la combe marion vers le coillu aller et retour]]></desc>
  </metadata>
  <wpt lat="46.17959" lon="5.91672">
    <ele>494.96</ele>
    <name><![CDATA[001]]></name>
  </wpt>
  <wpt lat="45.96373" lon="6.77729">
    <ele>1768.94</ele>
    <name><![CDATA[002]]></name>
  </wpt>
  <wpt lat="45.92289" lon="6.48432">
    <ele>1547.84</ele>
    <name><![CDATA[003]]></name>
  </wpt>
  <wpt lat="45.92679" lon="6.51817">
    <ele>2077.52</ele>
    <name><![CDATA[004]]></name>
  </wpt>
  <wpt lat="46.17998" lon="5.91662">
    <ele>426.23</ele>
    <name><![CDATA[005]]></name>
  </wpt>
  <wpt lat="46.17981" lon="5.91659">
    <ele>599.98</ele>
    <name><![CDATA[006]]></name>
  </wpt>
  <wpt lat="46.25476" lon="5.92722">
    <ele>1635.8</ele>
    <name><![CDATA[007]]></name>
  </wpt>
  <wpt lat="46.25699" lon="5.92978">
    <ele>1441.61</ele>
    <name><![CDATA[008]]></name>
  </wpt>
  <trk>
    <name><![CDATA[ACTIVE LOG: 23 JAN 2010 15:09]]></name>
    <trkseg>
      <trkpt lat="46.25933" lon="5.99138">
        <ele>460.13</ele>
        <time>2010-01-23T14:09:43Z</time>
      </trkpt>
      <trkpt lat="46.25928" lon="5.99146">
        <ele>465.9</ele>
        <time>2010-01-23T14:09:44Z</time>
      </trkpt>
      <trkpt lat="46.25926" lon="5.99149">
        <ele>470.22</ele>
        <time>2010-01-23T14:09:45Z</time>
      </trkpt>
      <trkpt lat="46.25919" lon="5.99159">
        <ele>469.74</ele>
        <time>2010-01-23T14:09:46Z</time>
      </trkpt>
      <trkpt lat="46.25902" lon="5.99183">
        <ele>475.99</ele>
        <time>2010-01-23T14:09:50Z</time>
      </trkpt>
      <trkpt lat="46.25896" lon="5.99192">
        <ele>478.87</ele>
        <time>2010-01-23T14:09:53Z</time>
      </trkpt>
      <trkpt lat="46.25894" lon="5.99196">
        <ele>484.16</ele>
        <time>2010-01-23T14:09:55Z</time>
      </trkpt>
      <trkpt lat="46.25893" lon="5.99197">
        <ele>481.28</ele>
        <time>2010-01-23T14:09:56Z</time>
      </trkpt>
      <trkpt lat="46.25893" lon="5.99199">
        <ele>484.64</ele>
        <time>2010-01-23T14:09:57Z</time>
      </trkpt>
      <trkpt lat="46.25892" lon="5.99199">
        <ele>486.08</ele>
        <time>2010-01-23T14:09:59Z</time>
      </trkpt>
      <trkpt lat="46.25892" lon="5.99198">
        <ele>489.93</ele>
        <time>2010-01-23T14:10:00Z</time>
      </trkpt>
      <trkpt lat="46.25892" lon="5.99198">
        <ele>488.01</ele>
        <time>2010-01-23T14:10:01Z</time>
      </trkpt>
      <trkpt lat="46.25892" lon="5.99199">
        <ele>491.85</ele>
        <time>2010-01-23T14:10:03Z</time>
      </trkpt>
      <trkpt lat="46.2589" lon="5.992">
        <ele>492.81</ele>
        <time>2010-01-23T14:10:05Z</time>
      </trkpt>
      <trkpt lat="46.25886" lon="5.99205">
        <ele>494.26</ele>
        <time>2010-01-23T14:10:08Z</time>
      </trkpt>
    </trkseg>
  </trk>
</gpx>